False Pass, AK

5:09 AM HDT on May 30, 2017 (GMT -0900)
False Pass

Weather History for PAKF - November, 2013

Change the Weather History Date:

Thursday, November 21, 2013

  Actual Average (PACD) Record (PACD)
Temperature  
Mean Temperature 30 °F -  
Max Temperature 34 °F 38 °F 53 °F (1946)
Min Temperature 26 °F 30 °F 10 °F (2005)
Degree Days  
Heating Degree Days 35    
Moisture  
Dew Point 22 °F    
Average Humidity 75    
Maximum Humidity 87    
Minimum Humidity 61    
Precipitation  
Precipitation 0.00 in - - ()
Sea Level Pressure  
Sea Level Pressure 29.50 in    
Wind  
Wind Speed 19 mph (WNW)    
Max Wind Speed 29 mph    
Max Gust Speed 46 mph    
Visibility 3 miles    
Events Rain , Snow    
Averages and records for this station are not official NWS values.
T = Trace of Precipitation, MM = Missing Value Source: NWS Daily Summary

Daily Weather History Graph

Daily Weather History Graph

Search for Another Location

Airport or City:

Trip Planner

Search our weather history database for the weather conditions in past years. The results will help you decide how hot, cold, wet, or windy it might be!

Date:

Astronomy

Nov. 21, 2013 Rise Set
Actual Time 8:37 AM HST 4:41 PM HST
Civil Twilight 7:55 AM HST 5:23 PM HST
Nautical Twilight 7:10 AM HST 6:08 PM HST
Astronomical Twilight 6:27 AM HST 6:51 PM HST
Moon 8:36 PM HST (11/21) 11:46 AM HST (11/21)
Length of Visible Light 9h 27m
Length of Day
8h 03m
Waning Gibbous, 84% of the Moon is Illuminated
Nov 21
Waning Gibbous
Nov 25
Last Quarter
Dec 2
New
Dec 9
First Quarter
Dec 16
Full

Hourly Weather History & Observations

Time (HST) Temp. Windchill Dew Point Humidity Pressure Visibility Wind Dir Wind Speed Gust Speed Precip Events Conditions
12:01 AM 34.0 °F 23.0 °F 30.0 °F 85% 29.55 in 5.0 mi NW 18.4 mph 29.9 mph 0.00 in Snow Light Snow
1:01 AM 33.1 °F 21.5 °F 28.9 °F 85% 29.54 in 4.0 mi NW 19.6 mph 27.6 mph 0.00 in Snow Light Snow
1:28 AM 33.8 °F 23.2 °F 28.4 °F 81% 29.53 in 1.8 mi NW 17.3 mph 26.5 mph 0.00 in Snow Light Snow
1:38 AM 33.8 °F 22.8 °F 28.4 °F 81% 29.53 in 3.0 mi NW 18.4 mph 26.5 mph 0.00 in Snow Light Snow
2:01 AM 33.1 °F 22.2 °F 28.0 °F 82% 29.53 in 10.0 mi NW 17.3 mph 26.5 mph 0.00 in Rain Light Rain
2:57 AM 33.8 °F 23.9 °F 26.6 °F 75% 29.52 in 8.0 mi NW 15.0 mph 28.8 mph 0.00 in Snow Light Snow
3:01 AM 33.1 °F 23.0 °F 27.0 °F 78% 29.52 in 6.0 mi WNW 15.0 mph 28.8 mph 0.00 in Snow Light Snow
3:20 AM 33.8 °F 23.5 °F 26.6 °F 75% 29.51 in 5.0 mi NW 16.1 mph 28.8 mph 0.00 in Snow Light Snow
3:45 AM 32.0 °F 21.6 °F 26.6 °F 80% 29.50 in 2.0 mi NW 15.0 mph 26.5 mph 0.00 in Snow Light Snow
3:59 AM 32.0 °F 20.8 °F 28.4 °F 87% 29.49 in 1.5 mi WNW 17.3 mph 29.9 mph 0.00 in Snow Light Snow
4:01 AM 32.0 °F 19.8 °F 28.0 °F 85% 29.49 in 1.5 mi NW 20.7 mph 29.9 mph 0.00 in Snow Light Snow
4:28 AM 32.0 °F 21.2 °F 28.4 °F 87% 29.48 in 2.0 mi WNW 16.1 mph 25.3 mph 0.00 in Snow Light Snow
5:01 AM 33.8 °F 23.2 °F 26.6 °F 75% 29.47 in 4.0 mi NW 17.3 mph 27.6 mph 0.00 in Snow Light Snow
5:08 AM 33.1 °F 22.2 °F 27.0 °F 78% 29.47 in 4.0 mi WNW 17.3 mph 24.2 mph 0.00 in Snow Light Snow
5:31 AM 33.8 °F 24.8 °F 28.4 °F 81% 29.46 in 5.0 mi WNW 12.7 mph 24.2 mph 0.00 in Snow Light Snow
5:57 AM 33.8 °F 22.8 °F 28.4 °F 81% 29.46 in 2.0 mi WNW 18.4 mph 26.5 mph 0.00 in Snow Light Snow
6:01 AM 32.0 °F 21.6 °F 27.0 °F 82% 29.46 in 2.0 mi WNW 15.0 mph 25.3 mph 0.00 in Snow Light Snow
6:46 AM 32.0 °F 21.2 °F 26.6 °F 80% 29.45 in 3.0 mi WNW 16.1 mph 24.2 mph 0.00 in Snow Light Snow
6:54 AM 32.0 °F 20.8 °F 26.6 °F 80% 29.45 in 2.0 mi WNW 17.3 mph 24.2 mph 0.00 in Snow Light Snow
7:01 AM 32.0 °F 19.5 °F 26.6 °F 80% 29.45 in 4.0 mi NW 21.9 mph 31.1 mph 0.00 in Snow Light Snow
7:41 AM 30.2 °F 17.8 °F 26.6 °F 86% 29.45 in 6.0 mi West 19.6 mph 33.4 mph 0.00 in Snow Light Snow
7:49 AM 30.2 °F 17.8 °F 26.6 °F 86% 29.45 in 1.8 mi West 19.6 mph 28.8 mph 0.00 in Snow Light Snow
8:01 AM 30.9 °F 18.1 °F 27.0 °F 85% 29.74 in 1.5 mi West 21.9 mph 34.5 mph 0.00 in Snow Light Snow
8:11 AM 30.2 °F 16.2 °F 26.6 °F 86% 29.45 in 1.8 mi West 25.3 mph 46.0 mph 0.00 in Snow Light Snow
8:20 AM 30.2 °F 17.4 °F 26.6 °F 86% 29.45 in 3.0 mi WNW 20.7 mph 35.7 mph 0.00 in Snow Light Snow
8:29 AM 30.2 °F 16.5 °F 26.6 °F 86% 29.45 in 2.0 mi WNW 24.2 mph 43.7 mph 0.00 in Snow Light Snow
8:53 AM 30.2 °F 16.8 °F 24.8 °F 80% 29.46 in 4.0 mi WNW 23.0 mph 36.8 mph 0.00 in Snow Light Snow
9:01 AM 30.9 °F 17.5 °F 24.1 °F 76% 29.74 in 7.0 mi WNW 24.2 mph 36.8 mph 0.00 in Snow Light Snow
9:26 AM 30.2 °F 18.5 °F 24.8 °F 80% 29.46 in 7.0 mi West 17.3 mph 32.2 mph 0.00 in Snow Light Snow
10:01 AM 30.2 °F 18.1 °F 24.8 °F 80% 29.46 in 2.5 mi WNW 18.4 mph 31.1 mph 0.00 in Snow Light Snow
10:12 AM 30.2 °F 17.4 °F 23.0 °F 75% 29.46 in 3.0 mi WNW 20.7 mph 33.4 mph 0.00 in Snow Light Snow
10:19 AM 30.2 °F 17.8 °F 23.0 °F 75% 29.45 in 2.5 mi WNW 19.6 mph 33.4 mph 0.00 in Snow Light Snow
10:27 AM 30.2 °F 16.8 °F 23.0 °F 75% 29.45 in 3.0 mi WNW 23.0 mph 34.5 mph 0.00 in Snow Light Snow
11:01 AM 30.0 °F 16.9 °F 21.9 °F 72% 29.73 in 3.0 mi West 21.9 mph 33.4 mph 0.00 in Snow Light Snow
11:33 AM 28.4 °F 13.5 °F 21.2 °F 74% 29.45 in 1.8 mi West 26.5 mph 42.6 mph 0.00 in Snow Light Snow
11:44 AM 28.4 °F 13.0 °F 21.2 °F 74% 29.45 in 2.5 mi WNW 28.8 mph 40.3 mph 0.00 in Snow Light Snow
11:52 AM 28.4 °F 13.5 °F 19.4 °F 69% 29.45 in 1.5 mi West 26.5 mph 42.6 mph 0.00 in Snow Light Snow
12:01 PM 28.4 °F 13.3 °F 19.4 °F 69% 29.45 in 2.0 mi West 27.6 mph 43.7 mph 0.00 in Snow Light Snow
12:11 PM 28.4 °F 13.8 °F 17.6 °F 64% 29.45 in 2.5 mi West 25.3 mph 38.0 mph 0.00 in Snow Light Snow
12:18 PM 28.4 °F 14.1 °F 17.6 °F 64% 29.45 in 3.0 mi West 24.2 mph 39.1 mph 0.00 in Snow Light Snow
12:27 PM 26.6 °F 11.4 °F 19.4 °F 74% 29.44 in 1.8 mi WNW 25.3 mph 38.0 mph 0.00 in Snow Light Snow
12:44 PM 26.6 °F 11.7 °F 19.4 °F 74% 29.44 in 3.0 mi West 24.2 mph 40.3 mph 0.00 in Snow Light Snow
12:56 PM 26.6 °F 14.3 °F 19.4 °F 74% 29.45 in 2.5 mi West 16.1 mph 41.4 mph 0.00 in Snow Light Snow
1:01 PM 26.6 °F 12.0 °F 17.6 °F 69% 29.44 in 2.5 mi WNW 23.0 mph 32.2 mph 0.00 in Snow Light Snow
1:09 PM 26.6 °F 12.7 °F 19.4 °F 74% 29.45 in 0.5 mi West 20.7 mph 32.2 mph 0.00 in Snow Snow
1:19 PM 26.6 °F 12.7 °F 17.6 °F 69% 29.45 in 1.2 mi West 20.7 mph 39.1 mph 0.00 in Snow Light Snow
1:28 PM 26.6 °F 12.0 °F 17.6 °F 69% 29.45 in 4.0 mi West 23.0 mph 39.1 mph 0.00 in Snow Light Snow
1:36 PM 26.6 °F 11.4 °F 19.4 °F 74% 29.45 in 1.0 mi WNW 25.3 mph 40.3 mph 0.00 in Snow Light Snow
1:43 PM 26.6 °F 12.4 °F 17.6 °F 69% 29.45 in 1.8 mi West 21.9 mph 40.3 mph 0.00 in Snow Light Snow
1:50 PM 26.6 °F 13.1 °F 17.6 °F 69% 29.45 in 4.0 mi WNW 19.6 mph 42.6 mph 0.00 in Snow Light Snow
2:01 PM 26.6 °F 12.4 °F 19.4 °F 74% 29.45 in 2.0 mi West 21.9 mph 31.1 mph 0.00 in Snow Light Snow
2:09 PM 26.6 °F 12.0 °F 19.4 °F 74% 29.45 in 1.5 mi West 23.0 mph 32.2 mph 0.00 in Snow Light Snow
2:17 PM 26.6 °F 12.7 °F 19.4 °F 74% 29.46 in 0.8 mi West 20.7 mph 41.4 mph 0.00 in Snow Light Snow
2:25 PM 26.6 °F 13.1 °F 19.4 °F 74% 29.45 in 0.8 mi West 19.6 mph 32.2 mph 0.00 in Snow Light Snow
2:32 PM 26.6 °F 12.7 °F 19.4 °F 74% 29.45 in 1.5 mi West 20.7 mph 35.7 mph 0.00 in Snow Light Snow
2:44 PM 26.6 °F 13.8 °F 19.4 °F 74% 29.45 in 1.0 mi West 17.3 mph 41.4 mph 0.00 in Snow Light Snow
2:53 PM 26.6 °F 12.0 °F 19.4 °F 74% 29.45 in 1.0 mi West 23.0 mph 33.4 mph 0.00 in Snow Light Snow
3:01 PM 26.6 °F 10.8 °F 19.4 °F 74% 29.45 in 0.8 mi WNW 27.6 mph 40.3 mph 0.00 in Snow Light Snow
3:11 PM 26.1 °F 12.7 °F 19.9 °F 78% 29.73 in 0.8 mi West 18.4 mph 40.3 mph 0.00 in Snow Light Snow
3:14 PM 26.6 °F 14.3 °F 19.4 °F 74% 29.45 in 1.0 mi West 16.1 mph 32.2 mph 0.00 in Snow Light Snow
3:22 PM 26.6 °F 12.0 °F 19.4 °F 74% 29.45 in 1.8 mi West 23.0 mph 41.4 mph 0.00 in Snow Light Snow
3:33 PM 26.6 °F 12.0 °F 19.4 °F 74% 29.45 in 4.0 mi WNW 23.0 mph 35.7 mph 0.00 in Snow Light Snow
3:47 PM 26.6 °F 11.1 °F 19.4 °F 74% 29.45 in 1.5 mi WNW 26.5 mph 39.1 mph 0.00 in Snow Light Snow
4:01 PM 26.6 °F 12.4 °F 19.4 °F 74% 29.45 in 4.0 mi WNW 21.9 mph 33.4 mph 0.00 in Snow Light Snow
4:08 PM 26.6 °F 11.1 °F 17.6 °F 69% 29.46 in 6.0 mi WNW 26.5 mph 41.4 mph 0.00 in Snow Light Snow
4:19 PM 26.6 °F 12.7 °F 19.4 °F 74% 29.46 in 1.0 mi WNW 20.7 mph 35.7 mph 0.00 in Snow Light Snow
4:37 PM 26.6 °F 11.4 °F 19.4 °F 74% 29.46 in 2.0 mi West 25.3 mph 43.7 mph 0.00 in Snow Light Snow
4:54 PM 26.6 °F 11.4 °F 19.4 °F 74% 29.45 in 0.8 mi WNW 25.3 mph 42.6 mph 0.00 in Snow Light Snow
5:01 PM 26.6 °F 12.7 °F 17.6 °F 69% 29.46 in 1.8 mi WNW 20.7 mph 35.7 mph 0.00 in Snow Light Snow
5:08 PM 26.6 °F 11.7 °F 17.6 °F 69% 29.47 in 5.0 mi West 24.2 mph 36.8 mph 0.00 in Snow Light Snow
5:16 PM 26.6 °F 12.7 °F 17.6 °F 69% 29.46 in 3.0 mi West 20.7 mph 34.5 mph 0.00 in Snow Light Snow
5:24 PM 26.6 °F 14.7 °F 17.6 °F 69% 29.46 in 9.0 mi West 15.0 mph 32.2 mph 0.00 in Snow Light Snow
5:32 PM 26.6 °F 12.4 °F 19.4 °F 74% 29.47 in 2.0 mi West 21.9 mph 34.5 mph 0.00 in Snow Light Snow
5:39 PM 26.6 °F 11.4 °F 19.4 °F 74% 29.47 in 1.2 mi WNW 25.3 mph 39.1 mph 0.00 in Snow Light Snow
5:58 PM 26.6 °F 13.4 °F 19.4 °F 74% 29.47 in 1.8 mi West 18.4 mph 34.5 mph 0.00 in Snow Light Snow
6:01 PM 26.6 °F 13.4 °F 19.4 °F 74% 29.47 in 2.5 mi WNW 18.4 mph 34.5 mph 0.00 in Snow Light Snow
6:08 PM 26.6 °F 11.4 °F 19.4 °F 74% 29.47 in 6.0 mi West 25.3 mph 38.0 mph 0.00 in Snow Light Snow
6:22 PM 26.1 °F 11.6 °F 19.0 °F 75% 29.76 in 3.0 mi WNW 21.9 mph 31.1 mph 0.00 in Snow Light Snow
7:01 PM 27.0 °F 14.3 °F 17.1 °F 66% 29.78 in 9.0 mi NW 17.3 mph 29.9 mph 0.00 in Snow Light Snow
7:16 PM 26.6 °F 13.1 °F 17.6 °F 69% 29.49 in 10.0 mi WNW 19.6 mph 33.4 mph 0.00 in   Overcast
8:01 PM 27.0 °F 15.6 °F 17.1 °F 66% 29.79 in 8.0 mi WNW 13.8 mph 27.6 mph 0.00 in Snow Light Snow
8:17 PM 26.6 °F 14.7 °F 17.6 °F 69% 29.51 in 2.5 mi WNW 15.0 mph 23.0 mph 0.00 in Snow Light Snow
8:24 PM 26.6 °F 13.4 °F 19.4 °F 74% 29.51 in 1.2 mi West 18.4 mph 27.6 mph 0.00 in Snow Light Snow
8:28 PM 26.6 °F 16.2 °F 19.4 °F 74% 29.51 in 2.0 mi WSW 11.5 mph 27.6 mph 0.00 in Snow Light Snow
8:36 PM 26.6 °F 14.3 °F 17.6 °F 69% 29.51 in 7.0 mi West 16.1 mph 21.9 mph 0.00 in Snow Light Snow
9:01 PM 26.6 °F 15.7 °F 15.8 °F 64% 29.50 in 8.0 mi WSW 12.7 mph 28.8 mph 0.00 in   Overcast
10:01 PM 27.0 °F 18.7 °F 15.1 °F 61% 29.79 in 10.0 mi WSW 8.1 mph - 0.00 in   Overcast
11:01 PM 27.0 °F 16.7 °F 19.0 °F 72% 29.80 in 5.0 mi SW 11.5 mph - 0.00 in Snow Light Snow
11:17 PM 26.6 °F 17.5 °F 19.4 °F 74% 29.51 in 2.0 mi SW 9.2 mph 16.1 mph 0.00 in Snow Light Snow
11:24 PM 26.6 °F 17.5 °F 19.4 °F 74% 29.51 in 2.5 mi SSW 9.2 mph 20.7 mph 0.00 in Snow Light Snow
11:29 PM 26.6 °F 17.5 °F 19.4 °F 74% 29.51 in 4.0 mi SW 9.2 mph 20.7 mph 0.00 in Snow Light Snow
11:41 PM 26.6 °F 17.5 °F 19.4 °F 74% 29.51 in 9.0 mi WSW 9.2 mph 16.1 mph 0.00 in Snow Light Snow